Tracking 19854 objects as of 22-Sep-2019
HD Live streaming from Space Station
objects crossing your sky now

CZ-4 DEB


CZ-4 DEB is no longer on orbit


NORAD ID: 28064
Int'l Code: 1999-057ST
Perigee: N/A
Apogee: N/A
Inclination: N/A
Period: N/A
Semi major axis: N/A
RCS: N/A
Launch date: October 14, 1999
Source: People's Republic of China (PRC)
Launch site: Taiyaun Space Center, China (TSC)
Decay date: 2015-03-22

Note: This is SATELLITE DEBRIS
aabbcc
Your satellite tracking list
Your tracking list is empty




NASA's NSSDC Master Catalog

Two Line Element Set (TLE):
1 28064U 99057ST  15081.04944676  .06842863  10995+0  28328-1 0  9999
2 28064 098.0761 106.1800 0015104 212.9126 147.0534 15.93438672610732
Source of the keplerian elements: AFSPC